This demonstration page uses our WeatherBlox Daily Observations layout. Learn more.

38.89511, -77.03637

Hourly Observations for September 16, 2015

Temp ( °F °C ) Dew Point ( °F °C ) Humidity (%) Winds ( mph kmh ) Pressure ( in mb ) Visibility ( mi km ) Precip ( " mm )
12:52 am 00:52 Partly Cloudy 66 19 57 14 73 73 Calm 30.36 1028 10 16.09344 0 0
1:52 am 01:52 Mostly Cloudy 66 19 57 14 73 73 Calm 30.36 1028 10 16.09344 0 0
2:52 am 02:52 Mostly Cloudy 64 18 57 14 78 78 Calm 30.36 1028 10 16.09344 0 0
3:52 am 03:52 Mostly Cloudy 63 17 57 14 83 83 Calm 30.33 1027 10 16.09344 0 0
4:52 am 04:52 Mostly Cloudy 63 17 55 13 77 77 Calm 30.33 1027 10 16.09344 0 0
5:52 am 05:52 Partly Cloudy 63 17 55 13 77 77 Calm 30.36 1028 10 16.09344 0 0
6:52 am 06:52 Mostly Cloudy 63 17 55 13 77 77 N 3 6 30.36 1028 10 16.09344 0 0
7:52 am 07:52 Partly Cloudy 64 18 57 14 78 78 Calm 30.36 1028 10 16.09344 0 0
8:52 am 08:52 Partly Cloudy 70 21 55 13 60 60 N 3 6 30.36 1028 10 16.09344 0 0
9:52 am 09:52 Partly Cloudy 73 23 57 14 57 57 N 3 6 30.36 1028 10 16.09344 0 0
10:52 am 10:52 Mostly Sunny 75 24 57 14 54 54 E 3 6 30.36 1028 10 16.09344 0 0
11:52 am 11:52 Partly Cloudy 81 27 59 15 48 48 ENE 5 7 30.36 1028 10 16.09344 0 0
12:52 pm 12:52 Mostly Sunny 82 28 55 13 40 40 ENE 5 7 30.33 1027 10 16.09344 0 0
1:52 pm 13:52 Mostly Sunny 84 29 54 12 35 35 ESE 3 6 30.3 1026 10 16.09344 0 0
2:52 pm 14:52 Partly Cloudy 84 29 54 12 35 35 Calm 30.27 1025 10 16.09344 0 0
3:52 pm 15:52 Partly Cloudy 84 29 52 11 33 33 S 3 6 30.27 1025 10 16.09344 0 0
4:52 pm 16:52 Partly Cloudy 84 29 52 11 33 33 SSE 6 9 30.24 1024 10 16.09344 0 0
5:52 pm 17:52 Mostly Cloudy 84 29 54 12 35 35 S 6 9 30.24 1024 10 16.09344 0 0
6:52 pm 18:52 Mostly Cloudy 81 27 55 13 42 42 SSE 9 15 30.24 1024 10 16.09344 0 0
7:07 pm 19:07 Mostly Cloudy 81 27 61 16 51 51 SE 9 15 30.24 1024 10 16.09344 0 0
7:52 pm 19:52 Mostly Cloudy 77 25 59 15 54 54 SSE 6 9 30.24 1024 10 16.09344 0 0
8:52 pm 20:52 Mostly Cloudy 75 24 61 16 61 61 SSE 7 11 30.24 1024 10 16.09344 0 0
9:52 pm 21:52 Mostly Cloudy 72 22 61 16 69 69 S 10 17 30.24 1024 10 16.09344 0 0
10:52 pm 22:52 Mostly Cloudy 72 22 59 15 65 65 SSW 6 9 30.24 1024 10 16.09344 0 0
11:52 pm 23:52 Partly Cloudy 70 21 61 16 73 73 SSW 5 7 30.24 1024 10 16.09344 0 0

Powered by AerisWeather